Regional Weather Roundup
Issued by NWS

Home | Current Version | Previous Version | Text Only | Print | Product List | Glossary Off
Versions: 1 2 3 4 5 6 7 8 9 10 11 12 13 14 15 16 17 18 19 20 21 22 23 24 25 26 27 28 29 30 31 32 33 34 35 36 37 38 39 40 41 42 43 44 45 46 47 48 49 50

000
ASUS45 KPSR 171610
RWRAZ

ARIZONA REGIONAL HOURLY WEATHER ROUNDUP
NATIONAL WEATHER SERVICE PHOENIX AZ
900 AM MST THU APR 17 2014

NOTE: FAIR INDICATES FEW OR NO CLOUDS BELOW 12,000 FEET WITH NO
SIGNIFICANT WEATHER AND/OR OBSTRUCTIONS TO VISIBILITY.

AZZ001>003-036-171700-
NORTHWEST ARIZONA

CITY           SKY/WX    TMP DP  RH WIND       PRES   REMARKS
BULLHEAD CITY  SUNNY     75  25  15 S3        29.88R
KINGMAN        SUNNY     73  18  12 S5        29.97R
$$

AZZ004>008-015-016-018-171700-
NORTH CENTRAL ARIZONA

CITY           SKY/WX    TMP DP  RH WIND       PRES   REMARKS
GRAND CANYON   SUNNY     59  23  25 CALM      30.14S
WILLIAMS       SUNNY     59  19  21 CALM      30.20S
PRESCOTT       SUNNY     64  19  17 SE7       30.08R
FLAGSTAFF      SUNNY     56  24  29 E7        30.16R
PAYSON         SUNNY     64  19  17 CALM      30.12R
PAGE           SUNNY     57  26  30 N3        30.09R
$$

AZZ009>014-017-171700-
NORTHEAST ARIZONA

CITY           SKY/WX    TMP DP  RH WIND       PRES   REMARKS
WINSLOW        SUNNY     57  23  26 E7        30.12R
SAINT JOHNS    SUNNY     58  17  20 CALM      30.12S
WINDOW ROCK    SUNNY     53  23  31 CALM      30.17S
SHOW LOW       SUNNY     57  21  24 N3        30.16S
$$

AZZ023-171700-
GREATER PHOENIX AREA

CITY           SKY/WX    TMP DP  RH WIND       PRES   REMARKS
PHOENIX        SUNNY     76  27  16 E6        29.91R
BUCKEYE          N/A     77  23  13 E8        29.92S
GLENDALE       SUNNY     77  27  15 NE6       29.93S
LUKE AFB       NOT AVBL
DEER VALLEY    SUNNY     77  17  10 VRB6      29.93R
SCOTTSDALE     SUNNY     77  25  14 SE5       29.95R
MESA-FALCON    SUNNY     75  21  13 N6        29.93R
MESA-GATEWAY   SUNNY     79  21  11 SE10      29.94R
CHANDLER       SUNNY     73  30  20 VRB5      29.93R
$$

AZZ027-028-171700-
SOUTHWEST MARICOPA COUNTY AND PINAL COUNTY

CITY           SKY/WX    TMP DP  RH WIND       PRES   REMARKS
CASA GRANDE    SUNNY     73  25  16 CALM      29.95R
GILA BEND      SUNNY     79  18  10 VRB3      29.92R
$$

AZZ503-504-507>509-171700-
SOUTHEAST ARIZONA

CITY           SKY/WX    TMP DP  RH WIND       PRES   REMARKS
TUCSON         SUNNY     72  23  16 SE10      30.00R
DAVIS-MONTHAN  SUNNY     72  25  17 SE9       29.99R
RYAN FIELD       N/A     75  25  15 NE3       29.99S
NOGALES        SUNNY     70  27  20 S7        30.04S
SIERRA VISTA   SUNNY     66  21  18 CALM      30.08R
DOUGLAS        SUNNY     67  26  21 VRB3      30.08R
SAFFORD        SUNNY     69  11  10 SE5       30.01R
$$

AZZ020-021-025-026-031-171700-
SOUTHWEST ARIZONA

CITY           SKY/WX    TMP DP  RH WIND       PRES   REMARKS
YUMA           MOSUNNY   78  45  30 SE15      29.87R
$$

CAZ031-033-041-043-047-048-061-171700-
SOUTHERN CALIFORNIA

CITY           SKY/WX    TMP DP  RH WIND       PRES   REMARKS
DOWNTOWN L.A.  CLOUDY    62  52  69 SE6       29.89R
L.A. AIRPORT   CLOUDY    61  52  72 SE7       29.90R
SAN DIEGO      CLOUDY    61  52  72 S9        29.92S
BURBANK        PTSUNNY   59  52  77 SE5       29.89R
ONTARIO        CLOUDY    59  53  80 S3        29.90R HAZE
RIVERSIDE      CLOUDY    57  52  83 N3        29.91R HAZE
PALM SPRINGS   SUNNY     72  45  37 SE5       29.89R
EL CENTRO NAS  MOSUNNY   69  56  62 E3        29.84R
IMPERIAL       SUNNY     71  58  63 SE7       29.84R
BLYTHE         SUNNY     76  30  18 S9        29.87R
NEEDLES        SUNNY     80  22  11 CALM      29.87R
$$

NVZ020-UTZ003-171700-
SOUTHERN NEVADA-UTAH

CITY           SKY/WX    TMP DP  RH WIND       PRES   REMARKS
LAS VEGAS      SUNNY     73  24  16 S6        29.89R
SALT LAKE CITY MOSUNNY   54  21  27 S13       30.06S
$$

NMZ009-TXZ055-171700-
NEW MEXICO-WEST TEXAS

CITY           SKY/WX    TMP DP  RH WIND       PRES   REMARKS
ALBUQUERQUE    MOSUNNY   55  27  34 E15       30.16R
EL PASO        SUNNY     66  24  20 N13       30.06R
$$


........................KEY........................
SKY/WX - SKY CONDITION/WEATHER
TMP    - TEMPERATURE IN FAHRENHEIT
DP     - DEW POINT IN FAHRENHEIT
RH     - RELATIVE HUMIDITY IN PERCENT
WIND   - DIRECTION AND SPEED IN MILES PER HOUR (MPH)
VRB    - VARIABLE WIND DIRECTION
PRES   - MEAN SEA LEVEL PRESSURE IN INCHES OF MERCURY
         F - FALLING PRESSURE   R - RISING PRESSURE
         S - STEADY PRESSURE
VSB    - VISIBILITY IN MILES
HX     - HEAT INDEX IN FAHRENHEIT
WCI    - WIND CHILL INDEX IN FAHRENHEIT
TC     - TEMPERATURE IN CELSIUS WHICH IS ALSO KNOWN AS
         TEMPERATURE IN CENTIGRADE
AFB    - AIR FORCE BASE
         LUKE AFB IS LUKE AIR FORCE BASE
         DAVIS-MONTHAN IS DAVIS-MONTHAN AIR FORCE BASE
NAS    - NAVAL AIR STATION
         EL CENTRO NAS IS EL CENTRO NAVAL AIR STATION
N/A    - NOT AVAILABLE



USA.gov is the U.S. government's official web portal to all federal, state and local government web resources and services.